18:18
Airports
History
Links
Donate
Help keep this website running!
PayPal
Bitcoin
This page is community maintained. The information is intended for PC simulator navigation or reference.
Always use approved charts for navigation.
0D4
Camp Vernon
Camp Vernon (0D4)
Westfield, New York, United States (14787)
4
Lat/Lng:42° 21' 22.21" N / 79° 32' 56.17" W
42.356169 / -79.548936
Elevation:655'ft / 200mMSL
ID / ICAO:0D4
Runways:1
Longest:(02-20) 901.2m / 2,957ft Grass
Distance To
Airport ID:
Nearby VORs <50NM
Nearby NDBs
Nearby WeatherUpdated 08-18-17 17:53 GMT
Nearby weather at KDKK, Chautauqua County/dunkirk located 17.1 nautical miles from 0D4
Altimeter: 29.77
Visibility: 10.0 statute miles
Wind: 17 knots (240°)
Temp: 26°c 79°f
Humidity: 69.6%

METAR: KDKK 181753Z AUTO 24017G25KT 10SM -RA CLR 26/20 A2977 RMK AO2 RAB1656 SLP076 P0000 60000 T02560200 10272 20233 55001

(Powered by phpweather)
Runway 02 / 20
Dimensions:901.2 x 15.2m 2957' x 50'ft
Surface:Grass
Runway 02 [A]Runway 20 [B]
Heading:011°TH 191°TH
Lat:
Lng:
42° 21' 7.91"N
79° 32' 59.93"W
42° 21' 36.5"N
79° 32' 52.41"W
User Notes and Comments
Google Map
Nearby Airports
4 Dart 7.0 NM
D79 SSE 150°
(R) Chautauqua Lake Airpark 7.3 NM
65NY SE 132°
4 Pratts Eastern Divide 15.9 NM
D88 SSW 206°
(U) Chautauqua County/dunkirk 17.1 NM
KDKK (WX) NE 56°
(U) Chautauqua County/jamestown 20.4 NM
KJHW (WX) SE 133°
(R) Fairbank Farms 20.7 NM
NY89 SSE 157°
(R) Ridgeview 22.5 NM
55NY SSE 147°
VFR Chart
Flight Planning at SkyVector.com